Find OneWeb SL0614

NORAD ID: 55156 Int'l Des: 2023-004 Owner: ONEWEBN Country: UK Constellation: oneweb operational
LEOCIRCULARPOLARONEWEB_TYPE

現在のビュー

3D地球を読み込み中...

About OneWeb SL0614

OneWeb SL0614 (NORAD 55156) is a oneweb constellation satellite launched Jan 10, 2023 by ONEWEBN of UK. It operates in LEO, CIRCULAR, POLAR, ONEWEB_TYPE orbit with a mass of 148.00 kg.

OneWeb SL0614について

説明を読み込み中...

次回通過

Passes for default location (London). Set your location on the main map for personalized predictions.

高度履歴

Loading altitude history...

軌道要素

1 55156U 23004S 26171.28333310 .00000029 00000-0 46070-4 0 9993
2 55156 87.8881 20.4610 0001992 81.9265 278.2089 13.11414470166240
Epoch: Jun 20, 2026 • Age: 38 hours

現在のステータス

高度 1227.8 km
速度 7.24 km/s
衛星直下点 -26.13°S, 152.22°E
打ち上げ日 Jan 10, 2023
運用期間 3.4 years
タイプ internet

技術仕様

分類 Payload
質量 148.00 kg
乾燥質量 140.00 kg
総質量 148.00 kg
長さ 1.30 m
直径 1.00 m
スパン 5.00 m
形状 Trapezoid+2 pan
製造者 ONEWUS
バスタイプ ARROW
フェーズステータス In Orbit
所有者/国 ONEWEBN/UK

Most Searched